When you browse on this site, cookies collect data to enhance your experience and personalize the content and advertising you see.
Visit our Privacy Policy to learn more. By continuing to use the site, you agree to this use of cookies and data.
  • In Latvia
  • List of Countries
  • For 7 days
  • Water Temperature
  • Satellite Maps
  • Weather Map
  • Weather Widgets
  • user-avatar
    Login

    Hourly Weather Andreevka

    Today, 17 June, Monday

    Time Temperature Precipitation Wind Pressure Humidity
    00:00 +14°C° 0 mm 2 mps 753 mmHg 84%
    01:00 +14°C° 0 mm 2 mps 753 mmHg 85%
    02:00 +14°C° 0 mm 2 mps 754 mmHg 86%
    03:00 +13°C° 0 mm 2 mps 754 mmHg 87%
    04:00 +14°C° 0 mm 2 mps 754 mmHg 84%
    05:00 +14°C° 0 mm 3 mps 754 mmHg 81%
    06:00 +16°C° 0 mm 3 mps 755 mmHg 77%
    07:00 +17°C° 0 mm 2 mps 755 mmHg 71%
    08:00 +19°C° 0 mm 2 mps 755 mmHg 65%
    09:00 +20°C° 0 mm 2 mps 755 mmHg 58%
    10:00 +21°C° 0 mm 2 mps 755 mmHg 55%
    11:00 +23°C° 0 mm 2 mps 755 mmHg 51%
    12:00 +24°C° 0 mm 2 mps 755 mmHg 48%
    13:00 +24°C° 0 mm 2 mps 755 mmHg 47%
    14:00 +24°C° 0 mm 2 mps 755 mmHg 46%
    15:00 +25°C° 0 mm 2 mps 755 mmHg 46%
    16:00 +25°C° 0 mm 2 mps 755 mmHg 49%
    17:00 +24°C° 0 mm 2 mps 754 mmHg 52%
    18:00 +24°C° 0 mm 1 mps 754 mmHg 55%
    19:00 +23°C° 0 mm 2 mps 754 mmHg 58%
    20:00 +20°C° 0 mm 2 mps 755 mmHg 61%
    21:00 +19°C° 0 mm 2 mps 755 mmHg 64%
    22:00 +18°C° 0 mm 2 mps 755 mmHg 67%
    23:00 +17°C° 0 mm 2 mps 755 mmHg 70%

    Tomorrow, 18 June, Tuesday

    Time Temperature Precipitation Wind Pressure Humidity
    00:00 +17°C° 0 mm 2 mps 755 mmHg 73%
    01:00 +17°C° 0 mm 2 mps 755 mmHg 74%
    02:00 +16°C° 0 mm 2 mps 755 mmHg 74%
    03:00 +16°C° 0 mm 2 mps 755 mmHg 75%
    04:00 +17°C° 0 mm 2 mps 755 mmHg 74%
    05:00 +18°C° 0 mm 2 mps 755 mmHg 72%
    06:00 +19°C° 0 mm 2 mps 755 mmHg 71%
    07:00 +20°C° 0 mm 2 mps 755 mmHg 67%
    08:00 +23°C° 0 mm 2 mps 755 mmHg 63%
    09:00 +24°C° 0 mm 3 mps 755 mmHg 58%
    10:00 +25°C° 0.1 mm 3 mps 755 mmHg 55%
    11:00 +26°C° 0.1 mm 3 mps 755 mmHg 52%
    12:00 +26°C° 0.1 mm 3 mps 754 mmHg 49%
    13:00 +27°C° 0 mm 3 mps 754 mmHg 49%
    14:00 +27°C° 0 mm 3 mps 754 mmHg 49%
    15:00 +27°C° 0 mm 3 mps 753 mmHg 49%
    16:00 +27°C° 0.1 mm 3 mps 753 mmHg 53%
    17:00 +26°C° 0.1 mm 3 mps 753 mmHg 57%
    18:00 +26°C° 0.1 mm 2 mps 753 mmHg 61%
    19:00 +24°C° 0 mm 2 mps 753 mmHg 66%
    20:00 +22°C° 0 mm 1 mps 753 mmHg 71%
    21:00 +21°C° 0 mm 1 mps 753 mmHg 77%
    22:00 +20°C° 0 mm 1 mps 753 mmHg 78%
    23:00 +20°C° 0 mm 1 mps 753 mmHg 80%

    Day after tomorrow, 19 June, Wednesday

    Time Temperature Precipitation Wind Pressure Humidity
    00:00 +20°C° 0 mm 1 mps 753 mmHg 81%
    01:00 +19°C° 0 mm 1 mps 753 mmHg 82%
    02:00 +19°C° 0 mm 1 mps 753 mmHg 83%
    03:00 +19°C° 0 mm 1 mps 752 mmHg 84%
    04:00 +18°C° 0.5 mm 2 mps 752 mmHg 85%
    05:00 +19°C° 0.5 mm 2 mps 753 mmHg 85%
    06:00 +19°C° 0.5 mm 3 mps 753 mmHg 86%
    07:00 +20°C° 0.8 mm 2 mps 753 mmHg 82%
    08:00 +20°C° 0.8 mm 2 mps 753 mmHg 79%
    09:00 +22°C° 0.8 mm 1 mps 753 mmHg 75%
    10:00 +23°C° 0 mm 1 mps 753 mmHg 68%
    11:00 +25°C° 0 mm 2 mps 753 mmHg 61%
    12:00 +26°C° 0 mm 2 mps 753 mmHg 54%
    13:00 +27°C° 0 mm 3 mps 753 mmHg 53%
    14:00 +27°C° 0 mm 3 mps 752 mmHg 51%
    15:00 +28°C° 0 mm 3 mps 752 mmHg 49%
    16:00 +27°C° 0 mm 3 mps 752 mmHg 53%
    17:00 +26°C° 0 mm 3 mps 753 mmHg 58%
    18:00 +26°C° 0 mm 4 mps 753 mmHg 62%
    19:00 +24°C° 0 mm 3 mps 753 mmHg 68%
    20:00 +21°C° 0 mm 3 mps 753 mmHg 74%
    21:00 +20°C° 0 mm 2 mps 753 mmHg 80%
    22:00 +19°C° 0 mm 2 mps 754 mmHg 82%
    23:00 +19°C° 0 mm 2 mps 754 mmHg 84%

    20 June, Thursday

    Time Temperature Precipitation Wind Pressure Humidity
    00:00 +18°C° 0 mm 2 mps 754 mmHg 87%
    01:00 +18°C° 0 mm 3 mps 754 mmHg 89%
    02:00 +17°C° 0 mm 3 mps 754 mmHg 91%
    03:00 +17°C° 0 mm 3 mps 754 mmHg 94%
    04:00 +17°C° 0 mm 4 mps 755 mmHg 91%
    05:00 +18°C° 0 mm 4 mps 755 mmHg 88%
    06:00 +19°C° 0 mm 4 mps 755 mmHg 84%
    07:00 +20°C° 0 mm 5 mps 755 mmHg 80%
    08:00 +21°C° 0 mm 5 mps 756 mmHg 75%
    09:00 +23°C° 0 mm 5 mps 756 mmHg 71%
    10:00 +25°C° 0.2 mm 5 mps 756 mmHg 67%
    11:00 +26°C° 0.2 mm 5 mps 756 mmHg 64%
    12:00 +27°C° 0.2 mm 6 mps 756 mmHg 61%
    13:00 +27°C° 0.3 mm 5 mps 756 mmHg 59%
    14:00 +27°C° 0.3 mm 5 mps 756 mmHg 57%
    15:00 +27°C° 0.3 mm 5 mps 756 mmHg 55%
    16:00 +27°C° 0.1 mm 5 mps 756 mmHg 56%
    17:00 +26°C° 0.1 mm 4 mps 756 mmHg 58%
    18:00 +26°C° 0.1 mm 3 mps 756 mmHg 60%
    19:00 +24°C° 0 mm 3 mps 757 mmHg 62%
    20:00 +22°C° 0 mm 3 mps 757 mmHg 65%
    21:00 +20°C° 0 mm 3 mps 757 mmHg 68%
    22:00 +19°C° 0 mm 3 mps 757 mmHg 69%
    23:00 +19°C° 0 mm 3 mps 757 mmHg 69%

    21 June, Friday

    Time Temperature Precipitation Wind Pressure Humidity
    00:00 +18°C° 0 mm 2 mps 758 mmHg 70%
    01:00 +18°C° 0 mm 2 mps 758 mmHg 72%
    02:00 +17°C° 0 mm 2 mps 758 mmHg 73%
    03:00 +17°C° 0 mm 2 mps 758 mmHg 75%
    04:00 +18°C° 0 mm 2 mps 758 mmHg 75%
    05:00 +19°C° 0 mm 2 mps 758 mmHg 74%
    06:00 +20°C° 0 mm 2 mps 758 mmHg 74%
    07:00 +22°C° 0 mm 3 mps 759 mmHg 69%
    08:00 +24°C° 0 mm 3 mps 759 mmHg 64%
    09:00 +26°C° 0 mm 3 mps 759 mmHg 59%
    10:00 +27°C° 0 mm 3 mps 759 mmHg 56%
    11:00 +28°C° 0 mm 3 mps 759 mmHg 52%
    12:00 +29°C° 0 mm 3 mps 758 mmHg 49%
    13:00 +29°C° 0 mm 3 mps 758 mmHg 48%
    14:00 +29°C° 0 mm 3 mps 758 mmHg 48%
    15:00 +29°C° 0 mm 4 mps 758 mmHg 48%
    16:00 +28°C° 0 mm 3 mps 758 mmHg 52%
    17:00 +28°C° 0 mm 3 mps 758 mmHg 56%
    18:00 +27°C° 0 mm 3 mps 758 mmHg 61%
    19:00 +26°C° 0 mm 3 mps 758 mmHg 64%
    20:00 +24°C° 0 mm 3 mps 759 mmHg 67%
    21:00 +22°C° 0 mm 3 mps 759 mmHg 70%
    22:00 +21°C° 0 mm 3 mps 759 mmHg 70%
    23:00 +20°C° 0 mm 2 mps 759 mmHg 70%

    22 June, Saturday

    Time Temperature Precipitation Wind Pressure Humidity
    00:00 +20°C° 0 mm 2 mps 759 mmHg 69%
    01:00 +19°C° 0 mm 2 mps 759 mmHg 71%
    02:00 +19°C° 0 mm 2 mps 759 mmHg 72%
    03:00 +18°C° 0 mm 2 mps 759 mmHg 73%
    04:00 +19°C° 0 mm 2 mps 760 mmHg 72%
    05:00 +20°C° 0 mm 3 mps 760 mmHg 71%
    06:00 +21°C° 0 mm 3 mps 760 mmHg 70%
    07:00 +22°C° 0 mm 3 mps 760 mmHg 65%
    08:00 +25°C° 0 mm 3 mps 760 mmHg 60%
    09:00 +27°C° 0 mm 3 mps 760 mmHg 54%
    10:00 +27°C° 0 mm 3 mps 760 mmHg 51%
    11:00 +28°C° 0 mm 3 mps 760 mmHg 47%
    12:00 +29°C° 0 mm 3 mps 760 mmHg 43%
    13:00 +29°C° 0 mm 3 mps 760 mmHg 42%
    14:00 +30°C° 0 mm 3 mps 760 mmHg 41%
    15:00 +30°C° 0 mm 2 mps 760 mmHg 40%
    16:00 +29°C° 0 mm 2 mps 759 mmHg 44%
    17:00 +29°C° 0 mm 2 mps 759 mmHg 48%
    18:00 +28°C° 0 mm 2 mps 759 mmHg 52%
    19:00 +26°C° 0 mm 2 mps 760 mmHg 54%
    20:00 +25°C° 0 mm 2 mps 760 mmHg 55%
    21:00 +23°C° 0 mm 1 mps 760 mmHg 57%
    22:00 +23°C° 0 mm 1 mps 760 mmHg 58%
    23:00 +22°C° 0 mm 1 mps 760 mmHg 60%
    Show more